Погода в Багдаде

Узбекистан     40°27′40″N   71°12′43″E
темп.,
°C
ветер,
м/с
пор.,
м/с
влажн.,
%
обл.,
%
осадки,
мм/ч
давл.,
гПа
погр.,
м
27 февраля, сб
сб2723:00−1всв112736 0.0 103133
02:00−2вюв003199 0.0 103026
05:00−2юв003299 0.0 103024
08:00−1в0029100 0.0 103072
11:00+2в1124100 0.0 1029724
14:00+4всв1120100 0.1 1029997
17:00+5в2220100 0.1 1031815
20:00+3св362770 0.0 1035168
28 февраля, вс
вс2823:00+1св364337 0.0 1035154
02:00−1всв22510 0.0 103427
05:00−2ююв11550 0.0 103223
08:000юв11490 0.0 103067
11:00+5всв34310 0.0 1025701
14:00+9всв34240 0.0 10221093
17:00+10всв33220 0.0 10221101
20:00+6в23300 0.0 102527
1 марта, пн
пн123:00+4всв23350 0.0 102531
02:00+2св124543 0.0 102525
05:00+1в114849 0.0 102423
08:00+2всв2244100 0.0 102581
11:00+8всв332778 0.0 1022588
14:00+13всв332013 0.0 1021925
17:00+13св22166 0.0 1021911
20:00+9всв22230 0.0 102522
2 марта, вт
вт223:00+7в12260 0.0 102622
02:00+5св223933 0.0 102625
05:00+5всв124567 0.0 102526
08:00+6ссв1142100 0.0 102565
11:00+11св2228100 0.0 1022421
14:00+14св2219100 0.0 1021827
17:00+14с1119100 0.0 1021680
20:00+11с1223100 0.0 102322
3 марта, ср
ср323:00+10в0125100 0.0 102322
02:00+9ююв0027100 0.0 102222
05:00+8ссв0029100 0.0 102122
08:00+9сз1128100 0.0 102122
11:00+13всв2228100 0.0 1019860
14:00+15вюв1125100 0.0 10171600
17:00+15з2320100 0.0 10181755
20:00+13з3748100 0.0 1020408